Regional Weather Roundup
Issued by NWS Jackson, KY

Home | Current Version | Previous Version | Text Only | Print | Product List | Glossary On
Versions: 1 2 3 4 5 6 7 8 9 10 11 12 13 14 15 16 17 18 19 20 21 22 23 24 25 26 27 28 29 30 31 32 33 34 35 36 37 38 39 40 41 42 43 44 45 46 47 48 49 50
000
ASUS43 KJKL 272211
RWRJKL

EAST KENTUCKY HOURLY WEATHER ROUNDUP
NATIONAL WEATHER SERVICE JACKSON KY
500 PM EST TUE JAN 27 2015

NOTE: "FAIR" INDICATES FEW OR NO CLOUDS BELOW 12,000 FEET WITH
NO SIGNIFICANT WEATHER AND/OR OBSTRUCTIONS TO VISIBILITY.

* THESE REPORTS ARE NOT UNDER NWS QUALITY CONTROL AND MAY NOT
  REPORT WEATHER SUCH AS PRECIPITATION AND FOG.

KYZ079-080-083-085-087-088-110-112-115-119-120-272300
...EASTERN KENTUCKY...

CITY           SKY/WX    TMP DP  RH WIND       PRES   REMARKS
JACKSON        CLEAR     32   4  30 VRB3      30.03R
LONDON         CLOUDY    32  19  58 NW8       30.06R WCI  25
SOMERSET*      CLOUDY    32  23  69 N7        30.11R WCI  26
MONTICELLO*    CLOUDY    32  28  85 NW6       30.13R WCI  26
MIDDLESBORO*   CLOUDY    32  24  73 N5        30.06R WCI  27
HARLAN APT*    CLOUDY    32  21  64 W5        30.02R WCI  27
HAZARD APT*    PTCLDY    36  16  44 NW5       30.03  WCI  32
BLACK MTN*       N/A     18  18 100 N3          N/A
PIKEVILLE APT* CLEAR     30  14  51 N7        30.01R WCI  23
BIG SANDY*     PTCLDY    30  15  52 N5        30.04R WCI  25
MOREHEAD APT*  CLEAR     28  14  54 NW8G14    30.11R WCI  20
$$

KYZ035-036-041-042-044-050-067-078-099-272300
...CENTRAL KENTUCKY...

CITY           SKY/WX    TMP DP  RH WIND       PRES   REMARKS
MT STERLING*   CLEAR     32  16  51 N7        30.10R WCI  26
FLEMING/MASON* CLEAR     27  14  59 N6        30.12R WCI  20
DANVILLE*      CLOUDY    32  23  69 NW8       30.11R WCI  25
RICHMOND*      PTCLDY    30  18  59 NW8       30.09R WCI  23
LEXINGTON      CLEAR     32  16  51 NW8       30.10R WCI  25
FRANKFORT      CLEAR     32  10  40 NW8       30.11R WCI  25
$$

KYZ091>093-OHZ055-061-077-WVZ005-015-034-035-042-272300
...SOUTHERN OHIO/WEST VIRGINIA...

CITY           SKY/WX    TMP DP  RH WIND       PRES   REMARKS
COVINGTON      CLEAR     30  14  51 N10       30.12R WCI  21
COLUMBUS       PTCLDY    22  11  62 NW16      30.12R WCI   8
DAYTON         PTCLDY    22  12  65 N10       30.15R WCI  11
WILMINGTON     CLEAR     23  12  62 N10       30.11R WCI  12
HUNTINGTON     PTCLDY    27  15  61 NW10      30.08R WCI  17
CHARLESTON     FLURRIES  24  13  62 NW7       30.06R WCI  16
PINEVILLE*     PTCLDY    29  14  54 MISG      30.01R
BECKLEY        CLEAR     21  10  62 N14       29.91R WCI   8
BLUEFIELD      CLEAR     29  -4  24 NW9G20    29.86R WCI  20
$$

VAZ002-007-008-TNZ017-027-036-066-071-272300
...SOUTHWEST VIRGINIA/EAST TENNESSEE...

CITY           SKY/WX    TMP DP  RH WIND       PRES   REMARKS
WISE*          MOCLDY    28  18  64 W7        29.94R WCI  21
JONESVILLE*    CLOUDY    32  23  69 CALM      30.04R
ABINGDON*      CLOUDY    33  15  47 NW10G21   29.93R WCI  25
BRISTOL        MOCLDY    34  21  59 NW12      29.97R WCI  25
KNOXVILLE      CLOUDY    35  29  78 CALM      30.05R
OAK RIDGE      CLOUDY    37  27  67 VRB3      30.07R
CROSSVILLE     CLOUDY    32  27  81 NW9       30.04R WCI  24
NASHVILLE      CLOUDY    39  29  67 NW10      30.13R WCI  32
$$

...KEY TO REMARKS...
VSB - VISIBILITY IN MILES
WCI - WIND CHILL INDEX
HX  - HEAT INDEX

$$



USA.gov is the U.S. government's official web portal to all federal, state and local government web resources and services.